Tracking 25707 objects as of 29-Jun-2022
HD Live streaming from Space Station
objects crossing your sky now

STARLINK-3927

Track STARLINK-3927 now!
10-day predictions
STARLINK-3927 is classified as:


NORAD ID: 52569
Int'l Code: 2022-051AN
Perigee: 356.7 km
Apogee: 359.7 km
Inclination: 53.2 °
Period: 91.6 minutes
Semi major axis: 6729 km
RCS: Unknown
Launch date: May 13, 2022
Source: United States (US)
Launch site: AIR FORCE WESTERN TEST RANGE (AFWTR)
aabbcc
Your satellite tracking list
Your tracking list is empty




NASA's NSSDC Master Catalog

Two Line Element Set (TLE):
1 52569U 22051AN  22180.58334491 -.01054318  00000-0 -85120-2 0  9999
2 52569  53.2173  62.1558 0002201  20.1868 229.4399 15.72739394  7888
Source of the keplerian elements: AFSPC